1532667600.59,59477,20.69,74216.3,10.11,-13.01,-13.61,0,*42
1532667601.82,59478,20.69,74216.0,10.11,-13.07,-13.69,0,*43
1532667603.05,59479,20.69,74218.8,10.11,-13.07,-13.69,0,*42
1532667604.31,59480,20.69,74216.8,10.11,-12.93,-13.61,0,*40
1532667605.59,59481,20.69,74216.0,10.11,-13.29,-13.87,0,*49
1532667606.81,59482,20.69,74212.8,10.11,-13.15,-13.69,0,*45
1532667608.06,59483,20.69,74216.8,10.11,-12.71,-13.43,0,*4F
1532667609.29,59484,20.69,74212.5,10.13,-13.23,-13.83,0,*40
1532667610.54,59485,20.69,74216.0,10.11,-13.47,-14.05,0,*48
1532667611.74,59486,20.69,74214.0,10.13,-13.15,-13.65,0,*4F
1532667612.94,59487,20.69,74214.3,10.13,-12.89,-13.65,0,*4A
1532667614.22,59488,20.69,74218.0,10.11,-12.61,-13.29,0,*49
1532667615.44,59489,20.69,74212.8,10.11,-13.07,-13.69,0,*4D
1532667616.67,59490,20.69,74216.8,10.11,-12.89,-13.55,0,*4D
1532667617.9,59491,20.69,74214.5,10.13,-12.79,-13.51,0,*45
1532667619.1,59492,20.69,74218.8,10.13,-13.11,-13.65,0,*4E
1532667620.33,59493,20.69,74212.8,10.13,-13.01,-13.65,0,*4E
1532667621.55,59494,20.69,74214.3,10.13,-13.11,-13.79,0,*45
1532667622.76,59495,20.69,74212.3,10.13,-13.15,-13.79,0,*40
1532667623.99,59496,20.69,74216.0,10.13,-12.79,-13.51,0,*42
1532667625.25,59497,20.69,74216.3,10.13,-13.37,-13.97,0,*42
1532667626.48,59498,20.69,74214.5,10.13,-13.01,-13.65,0,*45
1532667627.68,59499,20.69,74216.0,10.13,-12.97,-13.55,0,*49
1532667628.88,59500,20.69,74218.3,10.13,-13.43,-14.11,0,*47
1532667630.16,59501,20.69,74216.5,10.15,-12.79,-13.37,0,*4B
1532667631.4,59502,20.69,74208.8,10.15,-13.11,-13.79,0,*4D
1532667632.69,59503,20.69,74216.5,10.15,-13.29,-13.97,0,*47
1532667633.97,59504,20.69,74212.0,10.15,-13.37,-13.97,0,*4F
1532667635.2,59505,20.69,74218.5,10.15,-13.11,-13.65,0,*47
1532667636.44,59506,20.69,74218.3,10.15,-13.15,-13.83,0,*48
1532667637.67,59507,20.69,74214.0,10.15,-12.89,-13.55,0,*46
1532667638.9,59508,20.69,74216.5,10.15,-12.89,-13.55,0,*49
1532667640.15,59509,20.69,74216.3,10.15,-13.15,-13.83,0,*47
1532667641.35,59510,20.69,74214.5,10.17,-12.93,-13.51,0,*4D
1532667642.58,59511,20.69,74218.3,10.15,-12.89,-13.51,0,*45
1532667643.83,59512,20.69,74218.8,10.15,-12.79,-13.43,0,*4A
1532667645.06,59513,20.69,74214.8,10.17,-12.83,-13.51,0,*4F
1532667646.28,59514,20.69,74212.5,10.15,-12.89,-13.55,0,*44
1532667647.51,59515,20.69,74216.0,10.15,-12.89,-13.51,0,*41
1532667648.76,59516,20.63,74214.3,10.17,-12.83,-13.61,0,*49
1532667649.99,59517,20.69,74214.0,10.17,-12.75,-13.47,0,*45
1532667651.19,59518,20.69,74216.3,10.17,-13.07,-13.65,0,*4E
1532667652.41,59519,20.63,74214.8,10.17,-12.83,-13.51,0,*45
1532667653.63,59520,20.69,74214.5,10.17,-12.83,-13.47,0,*48
1532667654.85,59521,20.69,74216.0,10.21,-13.19,-13.79,0,*43
1532667656.05,59522,20.69,74216.0,10.21,-12.89,-13.55,0,*46
1532667657.28,59523,20.69,74214.3,10.21,-13.07,-13.61,0,*47
1532667658.53,59524,20.69,74212.8,10.21,-13.01,-13.61,0,*46
1532667659.74,59525,20.69,74216.0,10.21,-13.55,-14.19,0,*4E
1532667660.93,59526,20.69,74214.5,10.21,-13.07,-13.73,0,*41
1532667662.19,59527,20.69,74218.8,10.21,-13.29,-14.05,0,*4A
1532667663.4,59528,20.69,74218.3,10.21,-13.15,-13.79,0,*46
1532667664.63,59529,20.69,74216.3,10.21,-12.79,-13.55,0,*42
1532667665.83,59530,20.69,74216.0,10.21,-12.89,-13.47,0,*46
1532667667.05,59531,20.69,74216.0,10.21,-12.79,-13.47,0,*48
1532667668.3,59532,20.69,74216.3,10.21,-13.01,-13.61,0,*41
1532667669.5,59533,20.69,74218.0,10.21,-12.93,-13.55,0,*4D
1532667670.74,59534,20.69,74218.0,10.23,-13.15,-13.79,0,*49
1532667672.02,59535,20.69,74214.5,10.23,-12.61,-13.33,0,*44
1532667673.3,59536,20.63,74212.3,10.23,-12.57,-13.33,0,*42
1532667674.52,59537,20.69,74216.3,10.21,-13.15,-13.87,0,*49
1532667675.77,59538,20.69,74218.5,10.23,-13.01,-13.55,0,*4E
1532667677.04,59539,20.63,74212.3,10.23,-13.29,-13.87,0,*4A
1532667678.28,59540,20.69,74214.3,10.23,-13.07,-13.79,0,*49
1532667679.53,59541,20.69,74218.3,10.23,-13.15,-13.87,0,*4A
1532667680.77,59542,20.63,74212.0,10.23,-13.15,-13.79,0,*48
1532667681.99,59543,20.69,74214.3,10.21,-12.79,-13.47,0,*4D
1532667683.24,59544,20.69,74216.8,10.23,-12.79,-13.43,0,*4C
1532667684.48,59545,20.69,74218.3,10.23,-13.19,-13.79,0,*43
1532667685.74,59546,20.69,74216.0,10.23,-12.93,-13.61,0,*4A
1532667686.98,59547,20.69,74216.3,10.23,-13.07,-13.79,0,*4E
1532667688.2,59548,20.69,74214.3,10.23,-13.15,-13.73,0,*48
1532667689.44,59549,20.69,74216.5,10.23,-13.15,-13.79,0,*43
1532667690.67,59550,20.69,74216.5,10.23,-12.93,-13.55,0,*4A
1532667691.91,59551,20.69,74212.3,10.23,-13.01,-13.47,0,*42
1532667693.14,59552,20.69,74214.3,10.23,-12.93,-13.55,0,*48
1532667694.36,59553,20.69,74214.5,10.21,-13.29,-13.93,0,*41
1532667695.61,59554,20.63,74214.5,10.23,-13.07,-13.87,0,*4D
1532667696.83,59555,20.63,74210.8,10.23,-13.15,-13.73,0,*44
1532667698.06,59556,20.69,74216.0,10.21,-13.01,-13.73,0,*40
1532667699.31,59557,20.69,74214.0,10.23,-12.89,-13.61,0,*41
1532667700.53,59558,20.69,74218.3,10.23,-12.93,-13.69,0,*4D
1532667701.75,59559,20.69,74216.3,10.25,-13.01,-13.69,0,*40
1532667702.95,59560,20.69,74218.5,10.25,-12.89,-13.43,0,*43
1532667704.17,59561,20.69,74218.5,10.25,-12.75,-13.43,0,*41
1532667705.36,59562,20.69,74218.0,10.25,-13.11,-13.69,0,*49
1532667706.56,59563,20.69,74212.3,10.25,-13.23,-13.73,0,*42
1532667707.78,59564,20.69,74216.8,10.25,-13.15,-13.83,0,*4F
1532667709.0,59565,20.63,74212.8,10.25,-13.23,-13.87,0,*4F
1532667710.25,59566,20.69,74216.8,10.27,-13.01,-13.65,0,*42
1532667711.51,59567,20.63,74214.3,10.27,-13.01,-13.69,0,*4F
1532667712.73,59568,20.63,74214.0,10.25,-12.75,-13.55,0,*4F
1532667713.99,59569,20.63,74212.3,10.27,-13.01,-13.55,0,*4E
1532667715.21,59570,20.69,74218.8,10.27,-12.89,-13.51,0,*43
1532667716.44,59571,20.69,74216.5,10.27,-12.89,-13.51,0,*42
1532667717.64,59572,20.63,74214.5,10.25,-12.89,-13.51,0,*43
1532667718.86,59573,20.69,74216.8,10.25,-13.01,-13.65,0,*44
1532667720.09,59574,20.69,74218.0,10.27,-12.97,-13.55,0,*4C
1532667721.29,59575,20.69,74214.3,10.25,-12.89,-13.51,0,*44
1532667722.58,59576,20.69,74216.5,10.27,-13.29,-14.01,0,*4C
1532667723.83,59577,20.69,74212.5,10.27,-13.01,-13.73,0,*45
1532667725.06,59578,20.69,74218.5,10.27,-12.97,-13.65,0,*43
1532667726.31,59579,20.69,74214.5,10.27,-13.23,-13.87,0,*40
1532667727.54,59580,20.69,74218.3,10.29,-13.23,-13.97,0,*49
1532667728.77,59581,20.69,74216.0,10.27,-13.51,-14.11,0,*4A
1532667730.03,59582,20.69,74216.8,10.27,-13.01,-13.73,0,*4F
1532667731.22,59583,20.69,74216.8,10.25,-13.11,-13.73,0,*4D
1532667732.48,59584,20.69,74216.8,10.27,-13.23,-13.83,0,*46
1532667733.7,59585,20.69,74216.3,10.27,-13.15,-13.73,0,*4D
1532667734.93,59586,20.69,74216.3,10.27,-13.23,-13.73,0,*4B
1532667736.16,59587,20.69,74218.8,10.27,-12.97,-13.51,0,*44
1532667737.37,59588,20.69,74218.8,10.29,-12.83,-13.47,0,*47
1532667738.6,59589,20.69,74216.3,10.29,-12.97,-13.61,0,*47
1532667739.86,59590,20.69,74216.3,10.29,-13.37,-14.05,0,*41
1532667741.09,59591,20.69,74214.5,10.29,-13.23,-13.97,0,*49
1532667742.32,59592,20.69,74216.5,10.29,-13.07,-13.61,0,*45
1532667743.53,59593,20.69,74214.5,10.29,-12.83,-13.47,0,*4D
1532667744.73,59594,20.69,74216.3,10.29,-13.11,-13.69,0,*4C
1532667745.96,59595,20.69,74218.5,10.29,-13.23,-13.83,0,*48
1532667747.18,59596,20.69,74218.5,10.29,-13.37,-14.19,0,*4A
1532667748.41,59597,20.69,74214.5,10.29,-12.93,-13.37,0,*4F
1532667749.66,59598,20.69,74218.5,10.31,-13.07,-13.83,0,*4A
1532667750.88,59599,20.69,74218.0,10.29,-13.33,-13.93,0,*44
1532667752.16,59600,20.69,74218.8,10.27,-13.37,-14.01,0,*41
1532667753.42,59601,20.69,74216.5,10.27,-13.01,-13.69,0,*4C
1532667754.67,59602,20.69,74216.0,10.27,-13.01,-13.73,0,*44
1532667755.93,59603,20.63,74212.3,10.27,-13.23,-13.97,0,*4F
1532667757.13,59604,20.69,74218.3,10.29,-13.07,-13.73,0,*4A
1532667758.38,59605,20.63,74214.8,10.29,-13.33,-14.05,0,*4A
1532667759.57,59606,20.63,74216.8,10.29,-13.07,-13.69,0,*43
1532667760.86,59607,20.69,74214.3,10.27,-13.29,-13.97,0,*41
1532667762.08,59608,20.69,74216.3,10.29,-13.19,-13.79,0,*43
1532667763.33,59609,20.69,74216.5,10.27,-13.01,-13.73,0,*4F
1532667764.56,59610,20.69,74216.3,10.27,-13.11,-13.73,0,*46
1532667765.8,59611,20.69,74216.0,10.27,-13.15,-13.83,0,*4C
1532667767.02,59612,20.63,74214.8,10.29,-13.07,-13.79,0,*47
1532667768.22,59613,20.69,74214.5,10.29,-13.07,-13.69,0,*47
1532667769.45,59614,20.69,74216.5,10.29,-12.79,-13.51,0,*43
1532667770.64,59615,20.69,74216.5,10.29,-13.23,-13.93,0,*42
1532667771.84,59616,20.69,74216.0,10.29,-13.19,-13.93,0,*48
1532667773.04,59617,20.69,74216.5,10.29,-13.19,-13.93,0,*49
1532667774.28,59618,20.69,74218.3,10.29,-13.19,-13.97,0,*42
1532667775.5,59619,20.69,74216.3,10.29,-13.33,-14.11,0,*42
1532667776.75,59620,20.69,74218.5,10.29,-13.33,-13.97,0,*41
1532667777.98,59621,20.69,74212.8,10.29,-13.11,-13.83,0,*45
1532667779.17,59622,20.69,74212.8,10.29,-12.97,-13.69,0,*4D
1532667780.4,59623,20.63,74214.5,10.29,-13.19,-13.83,0,*4F
1532667781.63,59624,20.69,74216.0,10.29,-12.83,-13.51,0,*45
1532667782.85,59625,20.63,74218.8,10.29,-13.23,-13.87,0,*44
1532667784.11,59626,20.63,74212.5,10.31,-12.93,-13.61,0,*4C
1532667785.36,59627,20.69,74218.8,10.29,-12.65,-13.33,0,*4A
1532667786.61,59628,20.63,74216.3,10.31,-12.75,-13.43,0,*4A
1532667787.86,59629,20.69,74214.5,10.31,-12.79,-13.47,0,*43
1532667789.14,59630,20.63,74212.8,10.31,-12.65,-13.33,0,*45
1532667790.38,59631,20.69,74212.3,10.31,-13.15,-13.87,0,*4D
1532667791.58,59632,20.63,74214.5,10.33,-12.89,-13.69,0,*48
1532667792.8,59633,20.69,74218.0,10.31,-13.07,-13.73,0,*47
1532667794.0,59634,20.69,74216.3,10.33,-13.11,-13.73,0,*45
1532667795.22,59635,20.69,74216.5,10.33,-13.01,-13.69,0,*4E
1532667796.47,59636,20.69,74216.0,10.31,-12.65,-13.43,0,*44
1532667797.69,59637,20.69,74214.8,10.33,-12.89,-13.61,0,*45
1532667798.91,59638,20.69,74216.5,10.33,-12.83,-13.55,0,*47
1532667800.13,59639,20.63,74214.5,10.33,-12.83,-13.43,0,*41
1532667801.36,59640,20.69,74216.3,10.33,-12.97,-13.61,0,*4A
1532667802.63,59641,20.63,74216.3,10.35,-12.75,-13.37,0,*42
1532667803.83,59642,20.63,74214.8,10.33,-12.89,-13.55,0,*40
1532667805.05,59643,20.69,74214.0,10.35,-12.89,-13.55,0,*47
1532667806.31,59644,20.63,74218.5,10.35,-12.97,-13.61,0,*48
1532667807.5,59645,20.63,74212.8,10.33,-12.89,-13.55,0,*47
1532667808.78,59646,20.63,74212.5,10.35,-12.61,-13.37,0,*40
1532667810.0,59647,20.69,74216.3,10.35,-12.97,-13.55,0,*4C
1532667811.23,59648,20.63,74212.8,10.35,-12.89,-13.55,0,*4C
1532667812.5,59649,20.63,74212.8,10.35,-12.75,-13.37,0,*4A
1532667813.75,59650,20.69,74216.3,10.35,-12.83,-13.43,0,*48
1532667815.0,59651,20.63,74212.0,10.35,-12.89,-13.61,0,*43
1532667816.24,59652,20.63,74212.8,10.37,-13.11,-13.79,0,*4B
1532667817.47,59653,20.63,74214.0,10.37,-13.65,-14.37,0,*44
1532667818.72,59654,20.63,74214.3,10.37,-13.47,-14.05,0,*42
1532667819.98,59655,20.63,74218.0,10.35,-13.23,-13.97,0,*4F
1532667821.23,59656,20.63,74214.5,10.35,-13.11,-13.83,0,*48
1532667822.5,59657,20.69,74218.3,10.35,-12.75,-13.37,0,*45
1532667823.73,59658,20.63,74214.5,10.37,-13.07,-13.69,0,*47
1532667824.97,59659,20.63,74216.5,10.37,-12.79,-13.47,0,*42
1532667826.25,59660,20.63,74214.5,10.37,-12.71,-13.33,0,*43
1532667827.48,59661,20.63,74212.0,10.37,-12.93,-13.55,0,*4E
1532667828.73,59662,20.63,74214.8,10.37,-13.19,-13.79,0,*40
1532667829.96,59663,20.63,74212.5,10.37,-12.97,-13.65,0,*4B
1532667831.21,59664,20.63,74216.5,10.37,-12.83,-13.51,0,*4E
1532667832.44,59665,20.69,74214.5,10.37,-12.93,-13.55,0,*4A
1532667833.65,59666,20.63,74214.8,10.39,-13.07,-13.69,0,*44
1532667834.85,59667,20.63,74218.0,10.39,-12.97,-13.65,0,*41
1532667836.06,59668,20.63,74218.3,10.39,-12.93,-13.55,0,*49
1532667837.31,59669,20.63,74218.5,10.37,-12.83,-13.51,0,*43
1532667838.51,59670,20.63,74212.0,10.39,-12.93,-13.65,0,*43
1532667839.72,59671,20.63,74214.8,10.39,-12.93,-13.55,0,*41
1532667840.92,59672,20.63,74216.8,10.39,-12.97,-13.69,0,*49
1532667842.18,59673,20.63,74218.5,10.39,-12.79,-13.37,0,*43
1532667843.4,59674,20.63,74214.8,10.39,-12.71,-13.47,0,*4B
1532667844.63,59675,20.69,74214.8,10.39,-12.83,-13.51,0,*40
1532667845.87,59676,20.69,74218.3,10.41,-12.79,-13.47,0,*4E
1532667847.15,59677,20.63,74212.8,10.45,-12.71,-13.37,0,*44
1532667848.37,59678,20.63,74216.5,10.41,-12.89,-13.47,0,*4F
1532667849.64,59679,20.63,74218.0,10.41,-12.79,-13.33,0,*42
1532667850.92,59680,20.63,74214.8,10.41,-12.75,-13.33,0,*48
1532667852.17,59681,20.63,74214.5,10.45,-12.61,-13.23,0,*49
1532667853.45,59682,20.69,74216.5,10.41,-12.75,-13.33,0,*4A
1532667854.73,59683,20.63,74214.0,10.45,-13.01,-13.61,0,*4A
1532667855.95,59684,20.63,74216.3,10.45,-13.11,-13.73,0,*4F
1532667857.2,59685,20.63,74214.3,10.45,-13.01,-13.73,0,*4F
1532667858.46,59686,20.69,74218.8,10.45,-13.23,-13.97,0,*46
1532667859.71,59687,20.63,74216.5,10.45,-13.23,-13.83,0,*42
1532667860.97,59688,20.63,74214.5,10.45,-13.23,-13.97,0,*48
1532667862.24,59689,20.63,74214.5,10.45,-12.71,-13.37,0,*45
1532667863.49,59690,20.63,74214.8,10.45,-12.83,-13.55,0,*44
1532667864.71,59691,20.63,74214.3,10.45,-13.55,-14.11,0,*48
1532667865.96,59692,20.63,74212.5,10.41,-13.01,-13.65,0,*4A
1532667867.21,59693,20.63,74214.5,10.41,-13.07,-13.87,0,*41
1532667868.46,59694,20.63,74214.0,10.41,-13.47,-14.05,0,*4F
1532667869.7,59695,20.63,74216.3,10.41,-13.29,-13.93,0,*4E
1532667870.95,59696,20.63,74212.3,10.41,-13.19,-13.87,0,*4B
1532667872.2,59697,20.63,74218.8,10.45,-13.23,-13.87,0,*47
1532667873.43,59698,20.63,74214.0,10.45,-12.89,-13.55,0,*46
1532667874.68,59699,20.63,74212.0,10.45,-13.01,-13.73,0,*42
1532667875.93,59700,20.69,74218.3,10.45,-12.97,-13.61,0,*4E
1532667877.2,59701,20.63,74212.3,10.41,-13.29,-13.87,0,*47
1532667878.43,59702,20.63,74216.3,10.41,-12.93,-13.51,0,*4F
1532667879.67,59703,20.63,74214.0,10.45,-12.83,-13.47,0,*4C
1532667880.92,59704,20.63,74212.8,10.41,-12.79,-13.47,0,*4A
1532667882.16,59705,20.63,74216.5,10.45,-12.83,-13.47,0,*4A
1532667883.37,59706,20.63,74218.3,10.41,-12.89,-13.47,0,*47
1532667884.62,59707,20.63,74214.8,10.41,-12.79,-13.43,0,*4D
1532667885.86,59708,20.63,74216.3,10.45,-12.83,-13.47,0,*47
1532667887.08,59709,20.63,74214.3,10.47,-13.15,-13.83,0,*42
1532667888.33,59710,20.63,74218.0,10.45,-12.75,-13.43,0,*43
1532667889.54,59711,20.63,74212.8,10.47,-12.89,-13.55,0,*44
1532667890.74,59712,20.63,74214.5,10.47,-12.89,-13.55,0,*47
1532667891.97,59713,20.63,74214.8,10.47,-13.23,-13.87,0,*48
1532667893.21,59714,20.63,74214.3,10.47,-12.97,-13.61,0,*49
1532667894.46,59715,20.63,74216.3,10.49,-12.71,-13.51,0,*4D
1532667895.71,59716,20.63,74218.0,10.49,-12.83,-13.43,0,*40
1532667896.91,59717,20.63,74214.3,10.47,-12.97,-13.51,0,*49
1532667898.11,59718,20.63,74216.5,10.47,-13.11,-13.73,0,*49
1532667899.37,59719,20.63,74214.5,10.47,-13.01,-13.61,0,*4A
1532667900.6,59720,20.63,74214.5,10.47,-12.89,-13.61,0,*41
1532667901.83,59721,20.63,74218.3,10.47,-13.01,-13.73,0,*42
1532667903.09,59722,20.63,74212.5,10.47,-13.37,-13.97,0,*4E
1532667904.35,59723,20.63,74214.8,10.47,-13.29,-13.97,0,*40
1532667905.56,59724,20.63,74212.5,10.47,-12.97,-13.69,0,*42
1532667906.79,59725,20.63,74214.8,10.47,-12.97,-13.61,0,*4B
1532667907.99,59726,20.63,74212.3,10.47,-12.97,-13.69,0,*40
1532667909.22,59727,20.63,74214.5,10.47,-13.11,-13.83,0,*4A
1532667910.45,59728,20.69,74216.3,10.47,-13.23,-13.87,0,*40
1532667911.67,59729,20.63,74212.5,10.47,-13.23,-13.87,0,*41
1532667912.87,59730,20.63,74216.0,10.47,-13.47,-14.11,0,*43
1532667914.07,59731,20.63,74212.5,10.47,-13.15,-13.73,0,*46
1532667915.29,59732,20.63,74216.8,10.49,-13.07,-13.69,0,*43
1532667916.55,59733,20.63,74214.3,10.49,-12.65,-13.23,0,*49
1532667917.8,59734,20.63,74214.8,10.47,-12.61,-13.29,0,*4E
1532667919.05,59735,20.63,74212.8,10.49,-13.19,-13.83,0,*4F
1532667920.25,59736,20.63,74212.5,10.47,-12.89,-13.69,0,*4E
1532667921.5,59737,20.63,74210.5,10.49,-12.79,-13.51,0,*45
1532667922.74,59738,20.63,74216.3,10.47,-12.97,-13.61,0,*47
1532667923.99,59739,20.63,74214.8,10.49,-12.79,-13.51,0,*4B
1532667925.24,59740,20.63,74212.5,10.49,-13.11,-13.83,0,*45
1532667926.52,59741,20.63,74216.3,10.49,-13.37,-13.97,0,*45
1532667927.76,59742,20.63,74214.3,10.51,-13.19,-13.97,0,*43
1532667928.98,59743,20.63,74216.0,10.49,-13.11,-13.69,0,*42
1532667930.22,59744,20.63,74214.3,10.49,-13.11,-13.79,0,*44
1532667931.45,59745,20.63,74214.3,10.49,-12.93,-13.43,0,*47
1532667932.73,59746,20.63,74212.8,10.49,-13.33,-14.05,0,*4A
1532667933.95,59747,20.63,74216.5,10.49,-12.97,-13.65,0,*45
1532667935.18,59748,20.63,74212.5,10.49,-13.07,-13.69,0,*4E
1532667936.43,59749,20.63,74214.8,10.49,-13.23,-13.83,0,*4D
1532667937.68,59750,20.63,74216.0,10.49,-12.83,-13.55,0,*45
1532667938.95,59751,20.63,74216.3,10.49,-12.65,-13.37,0,*48
1532667940.18,59752,20.63,74212.5,10.49,-12.97,-13.65,0,*41
1532667941.4,59753,20.63,74218.5,10.49,-13.07,-13.69,0,*44
1532667942.68,59754,20.63,74214.3,10.49,-13.33,-13.97,0,*45
1532667943.94,59755,20.63,74212.3,10.47,-13.33,-13.97,0,*4A
1532667945.17,59756,20.63,74214.0,10.49,-13.19,-13.93,0,*4B
1532667946.39,59757,20.63,74214.8,10.49,-13.11,-13.69,0,*47
1532667947.62,59758,20.63,74212.8,10.49,-13.07,-13.65,0,*43
1532667948.84,59759,20.63,74210.8,10.49,-13.11,-13.69,0,*49
1532667950.11,59760,20.63,74214.3,10.49,-12.71,-13.37,0,*4F
1532667951.34,59761,20.63,74212.5,10.49,-12.97,-13.69,0,*4D
1532667952.58,59762,20.63,74214.5,10.49,-13.07,-13.79,0,*47
1532667953.81,59763,20.63,74214.8,10.49,-12.93,-13.65,0,*47
1532667955.01,59764,20.63,74214.8,10.51,-13.11,-13.69,0,*4E
1532667956.26,59765,20.63,74212.5,10.51,-13.33,-13.97,0,*4E
1532667957.46,59766,20.63,74212.5,10.51,-13.19,-13.93,0,*41
1532667958.67,59767,20.63,74208.8,10.51,-13.51,-14.23,0,*40
1532667959.92,59768,20.63,74212.8,10.49,-13.07,-13.83,0,*48
1532667961.17,59769,20.63,74216.0,10.49,-12.83,-13.51,0,*4B
1532667962.37,59770,20.63,74212.3,10.51,-12.97,-13.69,0,*44
1532667963.58,59771,20.63,74212.5,10.51,-13.55,-14.23,0,*43
1532667964.83,59772,20.63,74214.3,10.51,-13.37,-14.05,0,*40
1532667966.03,59773,20.63,74214.0,10.51,-12.93,-13.65,0,*4F
1532667967.23,59774,20.63,74212.8,10.51,-12.97,-13.69,0,*40
1532667968.45,59775,20.63,74216.3,10.51,-13.07,-13.79,0,*48
1532667969.67,59776,20.63,74212.5,10.49,-13.23,-13.93,0,*40
1532667970.93,59777,20.63,74214.8,10.49,-13.23,-13.83,0,*40
1532667972.18,59778,20.63,74212.8,10.49,-13.11,-13.83,0,*4E
1532667973.43,59779,20.63,74212.8,10.51,-12.71,-13.33,0,*4A
1532667974.68,59780,20.63,74212.5,10.53,-13.01,-13.73,0,*4C
1532667975.89,59781,20.63,74214.8,10.51,-13.51,-14.19,0,*41
1532667977.09,59782,20.63,74212.5,10.51,-12.97,-13.65,0,*45
1532667978.31,59783,20.63,74212.3,10.51,-12.79,-13.43,0,*40
1532667979.52,59784,20.63,74212.5,10.51,-12.93,-13.65,0,*47
1532667980.74,59785,20.63,74212.8,10.51,-12.83,-13.55,0,*44
1532667981.96,59786,20.63,74218.3,10.53,-12.89,-13.47,0,*4C
1532667983.23,59787,20.63,74214.0,10.53,-13.29,-13.87,0,*4A
1532667984.43,59788,20.63,74218.3,10.51,-13.07,-13.69,0,*4B
1532667985.68,59789,20.63,74214.8,10.51,-13.37,-13.97,0,*48
1532667986.91,59790,20.63,74216.5,10.51,-13.19,-13.79,0,*4C
1532667988.14,59791,20.63,74212.5,10.53,-13.15,-13.79,0,*43
1532667989.34,59792,20.63,74214.0,10.51,-13.23,-13.93,0,*43
1532667990.55,59793,20.63,74214.3,10.51,-12.93,-13.65,0,*41
1532667991.77,59794,20.63,74212.5,10.51,-13.01,-13.65,0,*4C
1532667992.99,59795,20.63,74218.3,10.51,-13.11,-13.79,0,*41
1532667994.27,59796,20.63,74214.8,10.53,-12.75,-13.37,0,*49
1532667995.47,59797,20.63,74210.0,10.51,-12.93,-13.55,0,*46
1532667996.71,59798,20.63,74214.3,10.53,-13.15,-13.79,0,*4A
1532667997.96,59799,20.63,74218.0,10.53,-12.75,-13.47,0,*41
1532667999.21,59800,20.63,74216.0,10.53,-13.01,-13.73,0,*4B
1532668000.42,59801,20.63,74212.3,10.51,-13.15,-13.79,0,*47
1532668001.67,59802,20.63,74214.8,10.55,-12.57,-13.29,0,*42
1532668002.9,59803,20.63,74214.3,10.55,-12.89,-13.61,0,*4C
1532668004.13,59804,20.63,74212.8,10.55,-13.23,-13.83,0,*46
1532668005.35,59805,20.63,74212.3,10.55,-13.23,-13.87,0,*43
1532668006.55,59806,20.63,74214.8,10.55,-12.97,-13.69,0,*4E
1532668007.81,59807,20.63,74214.5,10.55,-13.29,-13.97,0,*4A
1532668009.01,59808,20.63,74214.8,10.55,-13.11,-13.73,0,*44
1532668010.24,59809,20.63,74214.8,10.55,-12.97,-13.61,0,*49
1532668011.49,59810,20.63,74214.8,10.55,-12.61,-13.29,0,*44
1532668012.73,59811,20.63,74216.8,10.57,-12.83,-13.47,0,*43
1532668013.97,59812,20.63,74214.0,10.57,-12.83,-13.43,0,*44
1532668015.18,59813,20.63,74214.5,10.55,-12.83,-13.47,0,*43
1532668016.38,59814,20.63,74214.3,10.55,-13.43,-14.11,0,*4D
1532668017.61,59815,20.63,74214.3,10.55,-13.01,-13.73,0,*49
1532668018.83,59816,20.63,74214.8,10.57,-13.15,-13.73,0,*4D
1532668020.04,59817,20.63,74214.3,10.55,-12.83,-13.47,0,*47
1532668021.24,59818,20.63,74212.5,10.55,-12.97,-13.69,0,*41
1532668022.46,59819,20.63,74214.5,10.55,-13.15,-13.87,0,*4B
1532668023.66,59820,20.63,74214.5,10.55,-12.97,-13.47,0,*46
1532668024.88,59821,20.63,74214.3,10.57,-13.11,-13.69,0,*46
1532668026.07,59822,20.63,74212.3,10.55,-13.11,-13.69,0,*47
1532668027.29,59823,20.63,74212.3,10.55,-13.15,-13.83,0,*46
1532668028.49,59824,20.63,74210.0,10.55,-12.97,-13.69,0,*4E
1532668029.73,59825,20.63,74214.3,10.57,-12.83,-13.47,0,*44
1532668030.95,59826,20.63,74214.3,10.57,-12.97,-13.69,0,*4E
1532668032.21,59827,20.63,74214.5,10.55,-12.71,-13.33,0,*4A
1532668033.45,59828,20.63,74214.0,10.57,-12.83,-13.43,0,*4D
1532668034.73,59829,20.63,74214.8,10.57,-13.01,-13.61,0,*47
1532668035.95,59830,20.63,74214.3,10.57,-12.89,-13.55,0,*49
1532668037.23,59831,20.63,74214.3,10.57,-12.71,-13.33,0,*4F
1532668038.43,59832,20.63,74214.8,10.59,-13.07,-13.65,0,*41
1532668039.68,59833,20.63,74214.0,10.59,-12.71,-13.37,0,*47
1532668040.93,59834,20.63,74214.8,10.59,-12.65,-13.29,0,*4A
1532668042.18,59835,20.63,74212.8,10.59,-12.83,-13.37,0,*4C
1532668043.39,59836,20.63,74216.0,10.59,-12.83,-13.43,0,*4C
1532668044.65,59837,20.63,74218.3,10.59,-12.79,-13.29,0,*44
1532668045.9,59838,20.63,74212.8,10.59,-12.71,-13.29,0,*43
1532668047.17,59839,20.63,74214.8,10.61,-12.65,-13.33,0,*47
1532668048.4,59840,20.63,74210.8,10.59,-12.57,-13.23,0,*42
1532668049.64,59841,20.63,74214.8,10.61,-13.19,-13.79,0,*4C
1532668050.84,59842,20.63,74216.0,10.59,-12.97,-13.69,0,*42
1532668052.08,59843,20.63,74214.0,10.61,-13.01,-13.73,0,*4D
1532668053.31,59844,20.63,74214.3,10.59,-12.79,-13.43,0,*4C
1532668054.55,59845,20.63,74218.5,10.61,-12.79,-13.47,0,*42
1532668055.78,59846,20.63,74214.8,10.59,-12.65,-13.19,0,*4C
1532668057.0,59847,20.63,74214.3,10.61,-12.93,-13.65,0,*44
1532668058.23,59848,20.63,74212.3,10.59,-12.83,-13.55,0,*42
1532668059.45,59849,20.63,74216.0,10.63,-12.93,-13.61,0,*4C
1532668060.65,59850,20.63,74216.8,10.63,-12.89,-13.47,0,*4B
1532668061.87,59851,20.63,74210.5,10.63,-12.79,-13.47,0,*45
1532668063.1,59852,20.63,74212.5,10.63,-12.53,-13.23,0,*4C
1532668064.33,59853,20.63,74218.5,10.63,-12.89,-13.61,0,*4C
1532668065.57,59854,20.63,74218.5,10.61,-12.79,-13.47,0,*42
1532668066.79,59855,20.63,74214.3,10.63,-12.61,-13.23,0,*4A
1532668068.02,59856,20.63,74216.8,10.63,-12.61,-13.19,0,*40
1532668069.26,59857,20.63,74216.0,10.67,-12.57,-13.29,0,*43
1532668070.49,59858,20.63,74212.0,10.63,-12.93,-13.61,0,*4C
1532668071.72,59859,20.63,74212.3,10.63,-13.37,-13.93,0,*4F
1532668072.94,59860,20.63,74214.8,10.63,-12.89,-13.61,0,*4C
1532668074.15,59861,20.63,74212.8,10.67,-12.47,-13.19,0,*44
1532668075.35,59862,20.63,74212.3,10.63,-12.93,-13.51,0,*46
1532668076.57,59863,20.63,74212.3,10.63,-13.23,-13.79,0,*47
1532668077.8,59864,20.63,74216.5,10.63,-13.23,-13.79,0,*40
1532668079.02,59865,20.63,74214.0,10.63,-13.01,-13.73,0,*4B
1532668080.27,59866,20.63,74216.0,10.63,-12.75,-13.37,0,*4A
1532668081.46,59867,20.63,74212.0,10.67,-12.89,-13.47,0,*4B
1532668082.71,59868,20.63,74212.0,10.63,-12.65,-13.37,0,*45
1532668083.95,59869,20.63,74214.0,10.67,-12.71,-13.29,0,*4A
1532668085.17,59870,20.63,74212.8,10.67,-13.15,-13.87,0,*45
1532668086.39,59871,20.63,74216.5,10.67,-12.97,-13.61,0,*47
1532668087.61,59872,20.63,74210.8,10.67,-13.19,-13.79,0,*4A
1532668088.84,59873,20.63,74212.0,10.67,-12.71,-13.19,0,*42
1532668090.08,59874,20.63,74214.5,10.69,-12.65,-13.37,0,*42
1532668091.33,59875,20.63,74212.5,10.67,-12.57,-13.29,0,*43
1532668092.55,59876,20.63,74216.5,10.67,-12.75,-13.43,0,*4C